Location: Bay Harbour
(38.2612°N, 75.2555°W)
Time: 02:30:36
(UTC+00:00)

Cosmos 1980 Rocket - Pass Details

Date: 29 October 2020
Orbit: 831 x 848 km, 71.0° (Epoch: 02 December)

Event Time Altitude Azimuth Distance (km) Brightness Sun altitude
Rises 22:32:54 0° 160° (SSE) 3,377 5.3 -6.3°
Reaches altitude 10° 22:36:02 10° 143° (SE) 2,444 4.4 -6.9°
Maximum altitude 22:39:49 19° 100° (E) 1,896 3.5 -7.6°
Drops below altitude 10° 22:43:37 10° 57° (ENE) 2,447 4.0 -8.3°
Enters shadow 22:44:52 - 49° (NE) 2,797 4.4 -8.6°
